Location: Lesignano de� Bagni
(44.6500°N, 10.3000°E)
Time: 14:41:04
(UTC+00:00)

SME Rocket - Pass Details

Date: 03 March 2021
Orbit: 550 x 2652 km, 99.9° (Epoch: 18 April)

Event Time Altitude Azimuth Distance (km) Brightness Sun altitude
Rises 19:07:11 0° 15° (NNE) 4,960 7.7 -21.6°
Reaches altitude 10° 19:10:42 10° 16° (NNE) 3,650 6.9 -22.2°
Maximum altitude 19:18:50 85° 104° (ESE) 1,057 4.0 -23.6°
Drops below altitude 10° 19:24:03 10° 195° (SSW) 2,380 6.0 -24.5°
Sets 19:25:57 0° 196° (SSW) 3,147 6.7 -24.9°
